STARLINK-6124, 56126

Orbit data source: Space-Track

STARLINK-6124, 56126 is a payload satellite owned by SpaceX/Seattle (US) in LEO that was launched on Wed, 29 Mar 2023 UTC via an FALCON 9 launch vehicle from the Air Force Eastern Test Range (AFETR). Payload-class satellites include a variety of spacecraft equipped with specific instruments for various scientific and technological missions. These include communications satellites like Starlink; space stations such as the ISS; scientific satellites like the Hubble; Earth observation satellites from companies like Planet Labs, Umbra, and HawkEye 360; GPS; miniature CubeSats for education and research; and military/defense satellites.

Loading next visibility...
Identifier
56126, 2023-046AL
Orbit
LEO
Country
Flag of USUS
Related business
Manufacturer
SpaceX/Seattle
Mission
Operational Commercial Communications
Bus & Motor
STARLINK, Unknown motor
Mass
305 kg wet, ~290 kg dry
Launch date (UTC)
2023-03-29 (3 years ago)
Launch vehicle
FALCON 9
Launch site
Air Force Eastern Test Range (AFETR)
Object type
Payload
Rocket body
Debris
Shape & HBR
Box + 1 Pan, 10.1 m
Radar Cross Section
11.087 m², Large (>1 m²)

Expand to show TLE details & history
Last TLE update: 2 days ago

TLE from 2 days ago
0 STARLINK-6124
1 56126U 23046AL  26171.36847009 -.00000220  00000-0  15349-5 0  9991
2 56126  43.0038 287.1091 0001131 267.8242  92.2480 15.27574944177902
Epoch: 2026-06-20T08:50Z
TLE epoch observation values (Epoch: 2026-06-20T08:50:35.815Z)
Latitude
-0.00004°
Longitude
-114.12427°
Altitude
482.871 km
Speed
7.626 km/s
True Right ascension
19h 08m 26s
True Declination
0° 00' 00"
Sunlit
Object was in full shadow at epoch
Visualization orbit readout
Latitude
Unknown
Longitude
Unknown
Altitude
Unknown
Speed
Unknown
Apparent Right ascension
Unknown
Apparent Declination
Unknown
Sunlit
N/A
Visualization observer readout
Local Sidereal Time
21:46:59
Azimuth
Unknown
Elevation
Unknown
Doppler factor
Unknown
Orbital elements
Apogee altitude
485.785 km
Perigee altitude
484.233 km
Semi-major axis
6,863.146 km
Eccentricity
0.00011
Inclination
43.0038°
RAAN
287.1091°
Arg. of periapsis
267.8242°
True anomaly
92.26095°
Mean anomaly
92.248°
Eccentric anomaly
92.25448°
Mean motion
3.81732 °/min
Orbital period
94.31 mins
BSTAR
0.0000015349
Loading maneuver chart data...
Computing Atmospheric mass density...

Documentation

Showing up to 5 results
|